Location: Congrier
(47.8099°N, 1.1170°W)
Time: 14:07:50
(UTC+00:00)

FENGYUN 1C DEB - Visible Passes

Search period start: 23 February 2024 00:00
Search period end: 04 March 2024 00:00
Orbit: 759 x 906 km, 98.5° (Epoch: 21 February)

Date Brightness Start Highest point End Pass type
(mag) Time Alt. Az. Time Alt. Az. Time Alt. Az.
23 Feb ? 04:38:07 10° NE 04:41:16 16° E 04:44:21 10° ESE visible
23 Feb ? 06:16:54 10° NNE 06:22:23 81° WNW 06:27:37 10° SSW visible
24 Feb ? 04:22:43 10° ENE 04:23:58 11° E 04:25:13 10° E visible
24 Feb ? 05:59:55 10° NNE 06:05:22 75° ESE 06:10:34 10° S visible
25 Feb ? 05:42:59 10° NNE 05:48:18 54° E 05:53:23 10° S visible
25 Feb ? 18:55:09 10° WSW 18:56:55 11° W 18:58:42 10° WNW visible
26 Feb ? 05:26:10 10° NNE 05:31:11 39° E 05:36:01 10° SSE visible
26 Feb ? 18:36:12 10° SW 18:39:39 16° W 18:43:05 10° NW visible
27 Feb ? 05:09:26 10° NE 05:14:02 28° E 05:18:27 10° SSE visible
27 Feb ? 18:18:04 10° SW 18:22:26 22° W 18:26:45 10° NW visible
28 Feb ? 04:52:53 10° NE 04:56:49 21° E 05:00:38 10° SE visible
29 Feb ? 04:36:38 10° NE 04:39:33 15° E 04:42:24 10° ESE visible
29 Feb ? 06:15:19 10° NNE 06:20:40 82° WNW 06:25:49 10° SSW visible
01 Mar ? 04:21:54 10° E 04:22:14 10° E 04:22:35 10° E visible
01 Mar ? 05:58:19 10° NNE 06:03:38 73° ESE 06:08:45 10° S visible
02 Mar ? 05:41:23 10° NNE 05:46:33 52° E 05:51:32 10° S visible
02 Mar ? 18:53:31 10° WSW 18:55:16 11° W 18:57:00 10° WNW visible
03 Mar ? 05:24:32 10° NNE 05:29:26 38° E 05:34:09 10° SSE visible
03 Mar ? 18:34:34 10° SW 18:37:59 16° W 18:41:23 10° NW visible
